Cloud_Cover
0 0 0 0 0 0 0 0 0 61 86 100 100 100 100 100 100 100 100 100 100 96 100 100 100 100 99 100 100 100 100 100 48 100 100 61 83 66 88 67 33 42 100
0 0 0 0 0 0 0 0 0 26 100 100 100 100 100 100 100 100 100 100 100 100 100 100 100 100 100 100 100 100 100 100 98 100 86 97 51 98 100 100 94 100 100
0 0 0 0 0 0 0 0 6 56 100 96 100 100 100 100 100 100 100 100 100 100 100 100 100 100 100 100 100 100 100 100 99 40 87 95 100 80 100 84 86 99 100
3 0 0 0 0 0 0 0 0 4 88 100 84 100 100 100 100 100 100 100 100 95 100 100 100 94 100 100 100 86 100 100 92 100 100 100 100 100 100 100 100 77 100
5 0 0 0 0 0 0 0 0 0 95 85 100 87 100 100 100 100 100 100 100 100 100 100 100 98 100 100 100 100 100 100 71 100 100 67 100 100 100 100 100 95 96
6 14 2 0 5 1 0 0 0 0 0 93 100 100 100 100 99 100 100 100 100 100 100 100 98 100 97 34 100 100 100 100 100 89 100 100 100 39 79 95 96 100 100
92 92 50 9 0 0 0 0 0 0 0 0 3 82 100 100 100 70 95 100 100 100 100 100 100 100 100 99 100 100 100 100 100 99 100 100 100 99 95 55 87 97 37
10 40 3 29 5 78 84 67 0 0 0 0 0 0 0 47 100 100 100 100 100 100 100 100 100 100 100 100 100 100 100 100 100 100 100 100 92 90 100 100 99 50 48
79 100 92 100 10 6 0 0 0 0 0 0 0 0 0 0 0 4 100 100 100 100 97 100 100 100 100 100 100 100 100 100 100 100 100 100 100 100 100 100 100 77 100
99 63 100 11 0 0 0 0 0 0 0 0 0 0 0 0 0 0 1 94 100 100 100 100 100 100 100 100 100 100 100 100 100 100 100 99 100 100 100 100 100 100 100
56 96 7 0 0 0 0 0 0 0 0 0 0 0 0 0 0 0 0 8 22 88 100 100 100 100 100 100 100 100 100 100 100 100 100 93 73 91 100 92 91 98 100
69 1 0 0 0 0 0 0 0 0 0 0 0 0 0 0 0 0 2 5 3 0 10 94 100 100 100 100 100 100 100 100 100 100 100 100 96 84 81 99 89 90 69
0 0 0 0 0 0 0 0 0 0 0 0 0 0 0 0 0 0 0 0 0 21 0 0 54 100 100 100 100 100 100 100 100 100 100 100 100 100 100 91 61 86 68
0 0 0 0 1 0 0 0 0 0 0 0 0 0 0 0 0 0 0 0 0 6 4 5 32 24 89 82 100 100 100 100 100 100 100 100 100 100 100 58 100 96 100
0 0 0 3 1 3 0 0 1 0 23 43 23 1 3 1 2 0 0 0 0 2 64 5 0 12 19 13 5 4 61 93 100 100 100 100 100 100 68 88 100 100 100
0 0 0 1 10 4 7 0 0 3 0 0 0 26 31 54 98 82 38 93 100 98 87 18 0 3 12 0 0 0 11 14 23 48 76 100 100 100 100 100 100 100 100
5 1 7 4 2 9 0 3 5 0 0 0 1 47 21 0 14 29 32 100 100 100 99 38 22 1 0 0 0 0 0 0 3 24 32 95 100 98 99 100 100 100 100
0 1 5 3 10 1 47 100 100 100 98 57 12 0 0 3 6 27 76 100 100 100 100 100 100 90 97 60 23 0 0 2 23 13 51 95 100 100 70 0 100 94 100
50 100 86 11 2 95 100 100 100 100 100 100 82 6 0 4 56 98 100 100 100 100 100 100 100 77 33 12 2 0 0 0 9 24 38 72 89 100 94 6 100 99 100
30 54 89 96 100 100 100 100 100 100 100 100 100 100 90 99 100 100 97 100 100 100 97 81 71 52 12 1 2 18 30 28 32 33 36 50 92 100 83 28 100 100 100
42 94 100 100 100 100 100 100 100 100 100 100 100 100 100 100 100 100 100 100 85 50 100 100 89 28 6 21 13 17 23 18 19 21 30 60 99 100 100 47 95 77 100
5 31 91 96 100 100 100 100 100 100 100 100 100 100 100 100 100 100 91 83 99 100 100 100 100 100 100 100 85 71 62 63 43 43 46 68 100 100 100 100 99 85 100
5 2 26 100 100 100 100 100 100 100 100 100 100 100 100 100 100 100 100 100 100 100 100 100 100 100 100 100 100 100 100 98 70 48 49 53 80 88 100 100 100 100 100
5 5 1 100 100 100 100 100 100 100 100 100 100 100 100 100 100 100 100 100 100 100 100 100 100 100 98 100 100 100 100 100 100 100 91 98 81 50 52 92 100 97 100
5 4 1 0 38 75 100 100 100 100 100 100 100 100 100 100 100 100 100 100 100 100 100 100 86 85 100 100 46 70 97 100 100 100 100 100 100 58 92 100 98 100 100
0 0 7 0 7 4 68 97 96 100 100 100 100 100 100 100 100 100 100 100 100 100 100 100 100 100 100 100 98 95 100 100 100 100 100 100 100 100 100 100 90 100 100